RH
45 61 67 72 76 76 74 73 74 75 79 81 72 69 75 82 85 81 79 80 84 90 93 91 88 88 87 88 90 95 100 100 99 92 91 94 86 82 78 77 78 74 73 72 70 74 80 79 78 76 70 66 61 60 59 58 52 44 45 49 43 33 29 27 28 29 29 28 26 25 25 24 24 25 26 26 26 26 25 25 24 24 22 20 18 16 14 12 12 13 13 15 22 29 34 36 37
29 41 51 59 66 70 71 71 72 78 83 76 66 63 67 78 85 83 80 76 74 78 83 84 84 86 84 86 92 96 98 97 99 94 90 93 86 80 75 74 73 71 71 70 71 76 78 73 71 66 57 54 56 60 58 55 51 46 48 49 42 33 30 29 30 30 30 30 28 27 27 27 27 27 28 28 28 28 28 27 26 26 24 22 21 18 15 12 11 13 14 13 17 27 33 36 38
22 26 36 46 54 60 64 67 70 80 80 67 59 58 65 72 79 82 80 76 69 67 70 73 78 82 79 79 83 86 89 88 89 92 92 90 85 80 73 69 69 68 69 71 72 75 73 63 59 53 46 46 49 51 50 53 58 56 52 49 41 34 31 31 30 29 29 29 29 30 29 29 29 30 30 31 32 32 31 30 29 29 27 25 24 22 18 14 12 12 14 14 16 24 32 35 38
27 23 24 30 36 42 48 57 60 69 73 65 54 51 61 68 73 77 77 77 70 65 63 63 70 77 79 73 71 74 75 75 77 83 88 84 80 78 71 65 64 63 64 67 65 66 65 54 49 46 42 41 42 45 44 49 56 53 49 49 44 37 35 30 27 25 26 28 30 31 31 31 31 31 32 33 35 36 36 35 35 34 33 32 30 27 23 18 15 14 16 19 19 23 31 35 37
33 30 25 23 23 25 31 39 38 46 57 57 50 45 51 61 69 71 72 77 74 68 64 62 63 67 74 70 66 69 67 66 67 70 76 74 72 71 66 61 60 60 58 58 58 56 53 46 45 43 40 39 42 45 44 44 49 50 47 47 47 43 37 26 21 22 24 27 29 30 30 30 30 30 31 34 36 37 38 38 38 39 39 39 37 33 28 24 20 17 18 23 26 26 28 35 39
31 33 30 27 24 24 26 28 24 25 34 37 40 40 42 52 60 62 64 70 75 71 64 62 60 57 62 64 65 67 66 64 61 60 66 66 64 63 61 59 59 59 54 53 54 48 42 41 41 39 37 38 38 39 43 45 46 51 47 44 45 37 30 22 17 20 22 25 27 27 28 29 29 29 30 33 35 37 39 41 40 40 41 41 40 38 36 33 28 24 20 21 26 29 30 34 39
30 32 31 33 32 30 30 30 29 24 25 27 26 28 32 41 47 50 52 56 65 68 64 60 57 57 57 57 57 60 63 62 59 55 58 61 58 56 55 54 54 56 53 52 49 42 38 37 35 35 34 34 35 35 41 43 41 46 42 39 37 26 22 20 17 19 21 24 25 27 29 30 30 31 33 34 37 39 40 42 40 39 39 40 39 39 39 38 37 35 31 25 22 25 29 33 38
33 31 31 38 38 34 35 35 36 31 30 30 26 23 24 29 35 39 40 43 49 54 57 53 51 56 56 54 52 52 53 54 56 54 55 58 56 52 49 47 48 49 50 49 45 39 35 32 30 32 30 28 31 33 36 32 29 35 31 25 24 20 18 18 18 19 21 24 27 30 33 35 37 38 39 41 41 41 41 41 40 38 38 39 41 41 40 38 37 38 41 39 32 27 26 28 31
37 35 37 40 38 35 36 36 35 34 30 30 29 26 25 24 27 32 31 30 32 37 40 39 43 49 51 54 54 51 48 47 49 48 48 51 51 51 48 45 44 44 44 42 38 33 29 27 25 26 24 21 21 24 26 19 18 25 21 17 17 16 16 16 17 19 22 26 30 34 38 42 45 46 46 46 46 46 44 42 41 40 41 45 48 50 48 45 42 42 41 41 40 37 33 29 27
41 38 44 39 36 39 38 38 34 34 31 27 26 23 24 25 29 34 35 32 25 26 29 31 37 41 43 50 55 55 53 49 46 40 36 37 39 44 45 43 40 38 36 33 29 26 25 22 21 21 19 16 14 14 16 14 15 18 15 14 14 15 16 18 21 24 27 29 33 37 41 45 46 47 47 48 50 51 49 47 48 46 47 50 50 51 52 51 51 50 47 43 41 40 40 38 34
43 40 47 40 38 43 40 40 35 33 31 25 23 18 17 20 30 39 44 43 29 21 24 29 34 35 35 41 51 57 57 54 47 37 29 26 27 31 33 33 32 31 29 26 24 22 21 20 20 18 16 16 15 15 15 14 14 13 13 14 16 19 23 26 29 29 28 28 35 40 42 45 46 48 48 51 54 55 54 54 55 52 51 51 49 48 48 49 50 51 51 51 49 45 45 45 43
45 39 42 38 36 41 41 41 36 33 30 25 23 18 13 13 24 39 50 51 38 26 21 26 31 32 30 30 43 54 56 52 44 37 30 24 22 23 23 23 25 26 25 23 22 20 19 19 19 16 17 19 17 16 14 13 13 14 15 18 22 26 28 30 29 27 24 25 32 39 42 45 48 50 51 53 55 57 59 60 60 57 55 53 49 47 47 48 48 48 48 48 47 47 47 47 48
47 42 44 39 30 36 42 40 35 32 30 27 26 20 15 13 17 28 43 50 51 39 20 20 25 26 24 22 34 48 51 47 44 44 39 29 22 22 21 21 22 24 24 22 20 19 19 19 19 17 18 19 16 15 13 14 15 16 19 22 25 26 26 26 25 25 23 22 26 32 35 37 39 40 43 46 49 53 56 59 60 59 59 55 51 49 49 48 46 47 49 47 43 41 43 42 43
47 48 52 40 25 34 40 34 34 34 31 28 28 27 21 18 15 14 21 36 51 40 16 14 16 20 21 19 29 40 43 44 46 47 42 31 23 22 21 20 20 22 22 21 20 18 19 18 19 19 19 18 16 15 15 17 18 18 22 24 24 24 24 23 22 23 22 22 23 26 28 29 28 27 29 32 36 39 43 48 51 52 53 50 47 45 43 41 40 43 47 49 46 43 42 40 39
45 47 49 36 23 34 40 32 34 35 31 27 27 31 28 22 16 11 12 21 29 19 9 10 12 18 17 14 19 23 27 31 33 32 30 26 22 20 17 17 18 20 21 20 20 19 19 19 19 20 21 19 17 17 18 19 20 21 26 27 27 27 27 26 25 24 24 24 24 24 25 26 26 26 27 27 29 30 32 35 37 38 38 37 35 35 37 38 40 42 43 43 46 45 42 39 38
45 46 48 40 29 38 42 31 34 34 28 28 24 26 28 23 16 11 10 14 11 5 11 12 10 15 12 8 9 7 10 14 16 18 21 21 18 15 12 15 17 19 20 20 19 18 18 21 22 21 21 20 17 19 19 21 23 26 29 29 28 29 29 29 30 30 30 29 29 29 30 31 31 32 33 34 34 35 36 36 37 38 38 39 39 41 45 47 48 46 43 42 44 44 41 39 39
44 48 53 50 42 46 41 30 39 37 27 29 23 22 27 23 16 9 5 8 7 5 12 12 8 12 9 8 8 6 8 10 14 17 18 17 14 13 12 14 17 18 19 18 18 16 16 21 22 20 19 18 16 17 19 22 25 27 27 26 27 27 28 28 29 33 36 37 36 35 33 31 29 28 28 29 30 31 32 33 33 35 37 39 41 45 48 50 51 51 49 47 46 44 44 45 46
46 54 59 56 51 49 38 35 47 37 29 31 25 27 33 27 17 8 4 5 6 6 7 8 9 10 9 11 10 9 10 12 14 16 15 14 12 12 14 15 16 16 16 16 16 16 18 21 21 19 18 17 16 17 19 22 23 23 23 23 24 25 25 26 28 32 36 38 35 30 25 20 16 13 12 12 13 14 15 15 14 15 16 18 20 23 26 30 33 38 43 44 44 44 46 47 47
48 54 62 59 52 44 31 36 45 37 36 36 31 33 35 32 24 11 6 5 5 6 5 6 7 7 8 9 10 9 9 13 14 15 15 13 13 12 13 13 13 13 13 13 14 17 20 20 18 17 19 18 16 18 19 20 20 20 21 23 23 24 24 25 26 28 31 31 25 20 15 10 7 5 5 5 5 6 6 6 6 5 5 4 5 6 7 9 10 15 20 23 26 29 32 34 35
47 48 60 59 48 39 26 32 41 41 46 47 42 34 30 32 28 16 9 6 3 6 5 4 6 5 6 6 7 8 8 14 15 16 16 14 14 13 12 11 11 11 11 13 15 19 19 16 15 17 19 18 16 16 17 17 19 20 22 23 22 22 21 21 22 22 21 19 15 11 8 6 5 5 6 6 6 7 7 7 7 7 6 5 4 4 4 4 4 6 6 7 8 10 13 15 19
48 46 59 56 43 38 27 29 34 41 55 57 47 35 34 32 23 15 11 11 6 9 8 3 7 4 4 5 5 7 8 13 16 17 16 15 15 13 12 10 10 10 11 15 17 17 15 13 15 17 17 16 14 15 16 18 19 21 21 22 21 18 17 16 17 16 14 12 9 8 6 5 6 7 7 7 7 8 9 9 9 9 9 9 9 7 6 6 4 6 6 4 5 5 5 6 8
46 46 59 49 38 40 33 31 29 40 58 52 40 39 40 29 17 10 16 27 17 15 13 3 8 6 4 6 4 7 9 13 16 18 18 17 15 12 12 11 9 11 14 17 16 14 12 13 14 14 15 14 14 15 17 18 18 18 19 18 17 15 14 14 14 14 12 9 8 7 7 7 7 7 7 7 7 8 9 9 10 11 11 12 13 11 10 10 7 7 6 5 5 5 5 5 5
41 42 53 43 38 44 37 33 28 41 59 46 40 40 31 24 22 10 16 33 16 12 15 4 6 6 5 6 5 8 10 14 18 19 20 17 14 10 10 10 11 13 15 16 14 13 11 12 13 12 13 13 15 16 16 15 15 15 14 14 14 13 13 12 12 12 11 9 8 7 6 7 7 7 7 7 7 8 9 9 9 11 11 11 10 10 9 9 8 7 6 6 6 6 6 6 5
38 41 47 40 42 44 32 26 22 41 58 44 35 33 25 29 29 11 17 28 8 5 11 4 6 6 6 6 5 9 11 16 19 21 19 15 13 11 10 9 11 13 14 14 12 12 10 10 11 11 12 13 13 13 13 14 14 14 14 13 13 14 14 13 12 11 10 8 6 6 6 7 7 7 7 8 10 12 11 10 10 10 10 9 7 7 7 7 7 6 6 6 6 6 6 6 6
38 38 42 39 40 38 29 26 21 35 48 35 27 30 29 30 25 15 23 24 6 5 7 4 7 5 6 6 6 8 10 16 18 19 16 13 13 12 12 10 11 12 11 12 11 10 9 9 9 10 10 10 11 12 14 15 15 14 12 11 10 11 13 15 16 15 12 7 5 6 6 7 7 7 9 11 14 14 14 11 10 9 9 9 7 7 7 7 7 6 6 6 6 6 6 6 6
38 33 37 38 41 37 33 32 23 28 36 26 24 29 25 22 22 22 25 17 4 6 6 5 7 6 7 6 7 7 8 13 15 16 14 13 14 14 14 12 11 11 10 10 9 9 8 8 8 8 9 10 12 14 16 15 13 12 9 8 7 7 9 12 16 17 13 7 5 6 6 8 8 9 12 15 15 14 14 13 12 10 9 10 11 9 7 7 7 7 7 7 6 6 6 7 7
37 33 35 37 39 36 33 32 25 26 29 23 24 25 19 19 23 20 15 10 5 6 5 5 6 6 8 6 7 8 7 9 10 12 12 12 12 13 14 12 10 9 9 9 8 8 7 7 7 7 10 11 14 15 14 12 10 10 8 7 7 6 7 7 9 10 9 7 6 6 7 8 9 11 15 17 17 15 15 16 16 13 10 11 12 11 8 8 7 7 7 7 7 7 7 7 7
41 37 34 33 33 31 30 31 29 27 23 21 23 21 17 19 23 18 13 10 6 6 6 5 5 6 7 7 7 7 7 7 6 7 7 7 8 10 11 10 9 7 7 7 6 7 6 6 7 9 11 12 14 13 11 10 9 9 7 6 7 7 7 6 6 6 6 6 6 7 7 8 10 13 16 19 19 15 14 17 17 14 11 10 11 11 10 10 9 9 8 8 8 7 7 8 8
45 37 33 31 27 26 28 31 30 26 20 19 20 20 17 21 25 22 19 16 10 8 8 6 5 5 6 8 7 7 8 7 5 4 3 4 4 5 7 6 6 6 5 5 5 5 6 6 8 10 12 13 13 11 9 9 8 8 7 6 6 6 7 7 7 7 7 7 6 7 7 7 9 12 15 19 18 13 13 15 15 13 12 11 11 12 11 11 11 10 10 10 10 9 9 9 8
44 39 36 32 26 24 27 34 28 19 18 17 20 27 23 21 27 24 20 20 14 10 9 9 7 5 5 6 8 8 8 8 7 5 3 3 4 3 4 4 4 4 4 4 4 5 5 6 8 10 11 12 12 10 10 9 7 7 7 7 6 6 6 6 7 7 7 7 7 7 7 8 8 11 17 20 15 12 14 15 15 13 12 12 11 11 11 10 11 11 11 11 11 11 11 11 10
43 41 38 32 33 36 28 29 26 17 18 14 18 34 30 21 23 23 22 21 18 13 10 10 11 9 6 4 6 7 7 9 9 7 5 4 4 3 3 3 3 4 4 4 4 5 6 6 8 9 10 11 11 11 11 9 8 7 7 7 6 6 6 6 6 7 7 7 8 8 7 8 8 10 17 18 12 11 13 14 15 13 12 11 10 10 10 10 10 10 11 11 11 11 11 11 11
41 39 40 33 34 43 30 21 23 19 18 13 17 36 36 23 22 24 28 30 29 26 18 13 14 13 11 7 4 5 5 7 8 7 7 5 5 4 3 3 3 3 4 4 5 5 5 6 7 7 8 9 10 10 9 8 8 7 6 6 6 6 6 6 6 6 7 7 7 8 8 8 9 9 11 11 10 10 11 12 13 12 11 11 10 10 10 10 10 10 10 10 10 11 11 11 11
40 37 50 48 34 39 28 15 22 23 20 18 21 40 44 29 25 28 34 40 40 38 34 28 23 17 15 13 7 5 4 4 6 6 6 7 6 5 4 4 3 3 3 3 4 4 5 6 6 7 7 7 7 8 7 7 7 7 6 6 6 6 6 6 6 6 6 7 7 8 8 8 9 9 9 9 9 10 10 10 10 10 10 9 8 8 8 8 8 8 9 9 9 10 10 11 11
39 34 46 54 45 53 40 14 23 34 34 31 26 43 54 37 28 32 36 38 38 38 41 41 35 23 17 17 13 9 7 4 4 5 5 6 6 6 5 5 4 3 4 4 3 4 5 5 6 6 6 6 6 6 6 7 7 6 6 6 6 6 6 6 6 6 6 7 7 7 8 8 9 9 9 8 8 8 9 8 8 8 8 7 7 7 7 7 7 7 7 7 8 8 9 9 10
38 34 37 42 40 54 48 25 29 41 47 44 31 42 53 39 29 31 31 34 34 33 36 41 39 29 20 19 17 13 11 7 5 4 4 5 5 6 5 5 5 4 4 4 4 4 4 5 5 6 6 6 6 6 6 6 6 6 6 6 6 6 6 7 6 6 7 7 7 8 8 8 8 8 8 8 7 7 8 7 7 7 7 7 7 7 8 7 7 7 7 7 7 7 7 8 9
38 37 39 43 41 45 41 35 39 40 46 48 40 46 51 41 33 29 32 39 41 35 32 35 37 33 26 22 18 14 12 10 8 6 5 5 4 5 5 5 5 4 4 4 4 4 4 5 5 6 6 6 6 6 6 6 6 6 6 6 6 6 6 7 7 7 7 7 7 7 8 8 8 7 7 8 8 7 8 7 8 8 8 8 8 8 8 8 8 8 8 8 7 7 6 7 8
41 41 40 44 52 58 44 39 44 38 44 50 45 48 49 45 42 38 41 48 49 44 38 36 37 37 34 28 21 16 13 10 9 8 6 6 5 5 5 5 5 4 4 4 4 4 4 4 4 5 6 5 6 6 6 6 6 5 6 6 6 7 7 7 7 7 7 7 7 7 7 8 7 7 8 8 8 7 7 8 8 8 8 8 8 8 8 8 8 8 8 8 7 7 6 6 7
39 39 39 38 51 71 58 42 45 41 46 52 46 46 46 46 48 47 48 50 52 52 48 45 40 38 38 36 30 23 18 14 11 9 7 7 6 6 5 5 5 5 4 4 4 4 4 4 4 5 5 5 5 6 6 6 6 6 6 6 6 7 7 7 7 7 8 7 7 8 7 7 8 7 8 8 8 8 8 8 8 8 8 8 8 8 8 8 8 8 8 8 8 7 7 6 6
34 34 38 39 50 72 62 43 43 43 50 54 47 46 48 45 47 48 46 46 50 53 53 54 52 47 46 47 45 41 35 28 20 13 10 8 6 6 6 5 5 5 5 5 5 4 5 4 4 5 4 5 5 5 6 5 6 6 6 7 7 7 7 7 8 7 8 8 7 8 8 8 8 9 10 12 14 14 13 12 11 10 10 9 9 8 8 8 8 9 8 8 8 7 7 7 6
32 34 36 41 53 59 54 45 41 43 52 56 48 43 43 43 44 44 44 44 45 47 49 52 57 57 55 55 56 56 54 48 38 28 22 15 10 7 5 6 5 6 5 5 5 4 5 5 4 5 5 5 6 6 6 6 6 6 7 7 7 7 8 8 8 8 8 8 8 9 9 9 9 10 13 16 19 21 21 21 19 17 16 14 13 11 9 8 8 9 8 7 7 7 7 6 7
25 31 34 44 53 51 56 57 45 42 47 52 53 44 38 39 42 42 42 44 45 44 44 44 49 52 54 56 57 58 60 58 52 47 42 35 25 16 9 7 5 5 6 5 5 5 4 5 5 6 6 6 6 6 6 6 7 7 7 8 8 8 8 8 8 9 9 9 9 9 10 10 10 11 14 17 20 22 23 24 24 24 22 19 16 14 12 9 8 8 8 7 7 7 7 6 7
20 26 32 46 53 53 62 58 45 44 40 44 55 49 39 38 42 42 40 44 48 46 45 45 44 45 49 54 55 56 57 57 56 53 52 50 44 34 22 16 10 6 6 5 5 6 5 6 6 6 6 6 6 6 7 7 7 8 8 8 8 8 9 9 9 9 9 10 10 10 11 11 13 14 16 18 20 21 22 24 25 25 23 20 18 16 14 9 7 7 7 7 7 7 7 6 7
19 21 29 43 53 60 62 50 47 51 43 46 54 48 45 45 45 45 41 44 50 51 50 49 47 47 49 53 56 57 55 54 54 52 52 54 55 50 38 30 24 16 11 8 6 6 6 6 6 6 6 6 7 6 7 7 7 8 8 8 9 9 10 10 10 10 11 11 12 13 13 14 16 16 18 21 23 23 23 22 20 18 17 16 16 15 13 9 7 8 7 7 8 8 7 7 7
16 19 26 34 48 61 62 55 55 59 57 58 57 53 51 49 49 49 45 44 46 48 51 51 51 53 55 56 58 59 58 55 53 51 52 55 59 60 53 48 44 34 21 15 13 8 6 6 6 7 7 7 7 7 7 8 8 8 9 10 10 11 12 12 12 13 13 14 15 15 15 15 15 15 18 23 25 22 18 15 12 12 12 13 14 13 11 9 7 7 7 8 9 8 7 8 8
19 22 24 28 42 54 61 65 63 67 73 65 61 62 51 44 50 51 47 46 43 41 47 52 55 58 59 57 59 61 61 59 53 49 49 54 61 64 63 60 60 52 36 25 21 17 13 10 7 6 7 8 8 8 9 9 10 11 11 12 12 13 14 14 14 15 15 15 14 14 14 14 13 12 14 16 16 13 10 8 8 9 11 11 11 10 9 8 7 7 9 11 11 9 8 8 9
32 23 19 25 36 42 53 64 63 74 81 63 59 62 48 42 49 51 46 41 42 43 48 56 59 60 59 55 57 57 56 56 53 50 48 50 58 63 64 62 63 62 52 38 31 31 31 25 18 12 8 8 8 8 9 10 10 11 12 13 14 15 15 16 17 16 14 13 13 13 13 11 9 8 9 10 10 10 9 8 9 9 11 11 10 9 8 8 7 8 13 15 12 10 9 9 9
43 21 19 33 35 34 43 53 60 78 80 59 57 62 52 47 45 49 49 37 39 47 49 53 55 57 55 50 50 49 50 55 55 53 51 50 54 57 57 57 58 61 60 53 46 43 43 40 36 30 22 15 11 10 10 11 12 14 16 19 19 18 19 21 18 14 12 12 12 11 10 10 11 12 13 13 14 15 15 15 14 12 10 10 10 10 10 11 9 9 15 19 15 10 10 10 10
45 25 37 52 42 31 35 42 50 70 73 53 57 67 58 49 42 49 57 49 50 54 52 54 53 52 51 44 42 42 46 53 58 59 56 53 53 51 49 48 49 52 53 55 57 54 50 48 48 45 38 29 23 22 22 23 25 27 29 29 25 23 24 21 15 11 11 12 11 12 14 16 16 16 16 18 22 26 30 33 33 31 22 14 11 11 11 12 13 12 15 20 19 13 10 10 11
44 38 57 63 53 43 36 39 40 52 65 55 62 75 58 42 44 55 60 57 61 60 56 61 58 52 49 41 35 35 38 44 52 60 61 59 59 52 46 44 40 39 40 43 50 56 59 58 56 53 46 39 35 35 35 34 36 38 39 35 30 29 26 17 12 13 14 16 18 19 19 19 19 21 25 31 37 42 48 53 55 56 49 32 19 15 17 17 15 15 16 18 19 17 13 11 11
36 42 54 50 56 59 41 39 39 40 56 59 61 69 52 34 39 51 55 56 59 57 57 62 60 53 49 41 32 30 31 34 40 50 58 60 59 54 48 43 36 32 32 34 39 49 58 61 60 57 51 45 41 41 41 39 38 38 39 38 37 33 22 14 15 19 21 23 23 22 23 26 31 34 38 41 44 48 54 61 64 69 73 64 46 34 36 38 29 19 17 17 17 18 19 16 13
28 33 43 34 43 57 46 44 47 41 50 63 61 55 47 39 36 42 54 58 55 54 56 60 57 54 50 41 33 28 27 31 36 42 48 50 51 52 48 41 37 33 32 35 39 45 53 58 59 57 53 49 46 46 45 39 33 30 32 39 41 31 18 15 21 25 27 25 23 24 28 32 34 34 33 34 35 38 44 52 60 68 77 81 77 68 68 70 60 39 24 19 17 16 22 26 22
34 39 50 36 29 50 58 51 51 54 59 67 63 50 46 44 33 33 49 56 53 52 54 56 54 53 50 42 36 33 32 34 39 41 42 44 46 47 45 42 40 38 35 35 36 40 45 50 54 55 56 55 53 53 49 40 32 27 29 40 41 27 16 19 27 29 28 25 24 26 28 29 28 27 26 26 26 29 34 42 55 71 81 87 92 90 85 85 84 71 50 33 23 18 25 36 36
40 47 46 37 34 53 70 61 56 68 71 68 67 59 49 41 30 33 47 52 50 51 52 51 50 49 47 44 41 39 37 37 40 46 48 46 44 43 45 46 44 41 39 37 35 35 35 36 39 40 44 46 46 47 43 38 34 27 29 42 39 24 19 26 31 29 26 26 28 31 30 30 29 28 27 28 29 32 35 45 65 84 92 94 96 95 91 89 92 92 81 64 45 29 29 42 49
36 40 36 47 51 51 66 73 68 69 60 52 65 74 62 42 29 33 45 49 46 48 49 46 45 46 44 44 45 41 40 43 45 48 50 48 45 46 48 49 48 45 41 38 37 35 32 29 27 25 24 26 26 27 28 30 28 24 33 42 34 24 27 31 30 28 28 31 34 34 32 32 32 31 34 37 38 40 45 54 68 79 82 87 91 94 97 97 96 96 96 92 78 59 46 44 53
22 30 35 51 52 43 56 69 71 73 58 38 51 74 68 41 26 30 40 46 45 44 47 46 42 42 41 41 42 41 43 48 48 47 49 50 50 52 53 52 50 48 43 39 37 35 35 33 29 25 19 15 15 15 18 19 20 27 37 38 31 29 32 32 29 31 34 37 38 36 32 32 32 33 47 56 51 53 66 74 77 80 83 89 94 97 100 98 94 95 99 100 97 91 74 54 55
12 23 31 43 47 49 58 57 52 61 63 48 48 63 57 28 17 29 37 39 43 42 44 46 42 38 38 39 42 44 47 49 50 51 52 53 56 58 59 58 56 53 48 42 37 38 39 36 32 28 20 13 12 12 14 18 26 36 39 34 32 33 32 31 33 37 39 39 39 36 32 32 31 38 60 71 66 75 91 92 89 91 92 94 99 101 100 97 96 98 100 100 100 98 82 59 63
7 13 20 31 40 47 59 64 55 53 62 66 62 56 47 30 14 18 30 35 37 37 37 38 40 41 39 42 47 49 51 51 51 53 54 56 60 61 62 62 61 58 51 42 39 42 42 37 34 29 21 17 17 19 24 31 39 40 36 33 34 33 33 35 39 41 41 41 41 35 33 35 37 48 63 65 69 88 92 78 78 88 93 97 100 100 99 100 100 100 100 100 97 90 75 65 77
5 7 10 20 31 36 51 67 62 51 51 63 70 50 38 48 33 8 17 30 26 28 34 34 37 41 41 45 52 52 52 54 53 55 58 58 61 62 63 63 59 56 51 41 38 43 43 39 36 30 23 21 22 26 31 35 38 36 34 35 34 34 38 40 42 43 41 47 54 46 37 38 40 46 54 55 65 83 75 56 62 81 91 92 87 85 90 93 91 92 94 90 86 83 79 80 90
Wind_Speed
14 14 14 14 13 13 12 11 12 12 12 11 8 9 11 11 12 12 13 14 14 13 11 12 13 15 17 19 21 21 20 19 16 14 14 13 12 12 11 13 14 14 15 15 13 13 14 13 14 13 12 13 13 12 13 14 13 13 14 15 15 16 16 15 15 15 14 13 12 10 9 8 8 8 9 9 9 9 10 9 9 9 9 10 9 8 7 6 6 6 6 6 7 7 6 6 6
15 15 14 13 13 12 11 10 11 12 10 9 9 9 10 11 12 11 12 13 13 14 13 13 14 15 16 19 22 22 22 21 19 16 14 13 11 10 10 11 11 12 13 13 13 13 12 12 14 13 11 12 12 11 11 12 12 13 14 14 14 15 15 14 13 13 12 11 9 7 7 7 7 8 8 8 8 8 9 8 8 8 9 9 9 8 7 6 6 6 6 6 6 6 6 6 6
16 16 15 14 13 11 11 10 10 10 9 9 9 9 9 10 12 12 12 12 12 12 13 13 13 14 14 17 20 19 20 20 19 16 14 13 11 9 9 9 10 11 12 12 13 12 12 12 12 11 10 10 10 11 10 10 12 13 15 14 12 13 13 12 11 10 9 7 6 6 6 6 7 7 7 7 7 8 8 7 7 7 8 8 8 8 8 7 6 6 6 6 6 6 6 6 6
16 16 15 15 14 12 12 11 10 10 9 8 8 9 9 10 12 13 12 11 11 11 11 12 13 12 12 13 14 16 18 18 18 17 13 12 12 10 8 9 10 10 10 11 11 10 10 10 10 9 8 9 9 10 9 9 11 12 13 13 10 11 10 8 8 7 6 5 5 5 5 5 6 6 6 6 6 6 6 6 6 6 7 7 7 8 8 9 8 7 6 6 5 5 5 5 6
15 16 16 15 15 14 13 12 11 10 8 7 9 9 10 11 12 13 13 12 10 10 9 9 11 11 10 10 11 13 14 15 16 16 13 11 10 10 9 8 9 10 9 10 10 9 8 8 8 8 8 8 8 9 8 9 10 9 10 10 8 8 7 6 6 5 5 4 4 4 4 4 5 6 5 5 5 5 6 6 6 6 6 6 6 7 8 8 9 8 7 6 5 5 5 5 5
14 15 15 15 15 13 13 13 12 11 9 7 8 9 10 11 11 11 13 13 11 9 8 7 8 10 9 9 9 10 11 11 13 14 13 11 9 9 8 8 8 8 9 9 9 8 7 8 7 7 7 7 7 7 8 9 8 7 8 7 5 5 5 5 6 5 5 4 4 4 3 4 5 5 5 4 4 5 5 6 6 5 5 5 6 6 7 7 8 8 8 7 5 5 5 5 5
14 14 14 14 14 12 13 13 11 10 10 7 7 8 10 12 11 11 11 12 12 9 8 6 6 8 9 8 8 8 8 8 9 11 12 11 9 7 7 7 7 7 8 8 8 7 7 7 6 6 7 6 6 6 7 8 6 5 6 5 4 5 5 6 6 5 5 4 4 4 4 4 5 5 5 4 4 5 5 5 5 5 4 4 5 5 5 5 6 7 7 7 6 5 4 4 4
14 13 13 12 12 12 12 12 10 10 9 7 6 6 8 11 12 11 11 11 11 10 8 6 4 7 9 9 8 7 7 7 6 8 9 11 9 7 7 6 6 6 6 7 7 6 6 6 6 6 7 6 6 6 6 6 4 4 4 4 4 5 6 6 5 5 5 5 4 4 4 5 5 5 4 4 4 4 4 5 5 4 4 4 5 5 4 4 5 5 6 6 6 6 5 4 4
14 13 12 11 11 11 11 10 9 9 9 8 7 5 5 8 10 10 10 10 10 9 8 7 5 5 8 9 9 8 7 7 6 5 6 8 8 7 6 6 5 5 5 6 6 5 5 5 5 6 6 6 6 6 5 4 3 4 5 4 5 5 5 5 5 6 6 5 5 5 5 5 5 5 4 4 4 4 4 4 4 5 5 4 5 5 5 5 5 5 5 4 4 5 5 4 4
13 13 13 11 10 10 10 9 9 9 8 8 8 7 4 4 8 9 9 9 9 9 7 6 6 5 7 9 9 7 7 7 6 4 5 5 6 6 6 6 5 4 4 4 5 5 5 4 4 5 5 5 5 5 4 4 4 5 4 4 5 5 6 6 7 8 7 7 6 6 6 5 5 5 4 4 4 3 3 3 4 5 5 4 5 5 6 6 5 5 5 4 3 4 4 4 3
13 12 12 10 9 9 9 9 9 9 8 7 7 8 6 4 5 7 8 8 9 9 8 6 5 4 6 8 9 8 7 7 6 4 4 4 5 5 5 6 5 4 4 4 4 4 4 4 4 4 4 5 5 5 5 5 5 5 5 6 7 7 8 8 9 9 9 9 8 8 7 6 6 5 5 4 4 3 3 3 3 3 4 3 3 4 5 5 4 4 5 5 4 3 4 3 2
13 12 11 9 9 9 9 9 10 9 9 8 7 7 8 6 5 6 8 9 9 8 8 7 6 4 4 7 9 9 9 8 6 5 4 4 5 5 5 6 6 5 4 4 4 4 4 4 4 4 5 6 6 6 6 6 6 7 8 9 9 9 9 9 9 9 9 10 10 10 9 8 7 6 5 5 4 4 3 2 2 2 2 2 3 3 4 5 5 4 3 3 3 3 3 3 2
14 12 10 8 9 9 9 9 10 10 9 9 8 7 8 8 7 6 7 9 9 8 9 8 7 5 3 6 9 10 9 8 7 5 3 3 4 4 4 6 7 7 6 5 5 5 5 4 5 5 5 6 6 7 7 7 8 9 10 10 10 10 10 9 9 10 10 10 10 9 9 8 7 7 6 5 5 4 3 2 2 1 1 2 2 2 3 5 5 4 3 2 2 2 2 2 2
13 12 10 8 8 8 8 9 9 9 9 10 10 9 8 9 9 8 7 8 9 9 10 9 8 6 2 5 8 10 9 8 6 4 2 1 3 3 4 5 7 7 6 6 6 6 5 5 5 6 6 7 7 8 8 9 9 10 11 11 11 11 10 10 10 10 10 10 9 8 8 7 7 6 6 5 5 4 4 3 2 2 2 3 3 3 4 5 4 4 4 3 3 3 3 3 3
13 12 10 8 8 7 7 8 8 8 8 9 11 11 8 8 10 10 9 9 10 11 11 10 9 7 4 4 6 8 9 8 6 4 2 2 3 4 5 6 7 7 7 6 6 6 6 6 6 7 8 8 8 9 9 9 10 10 11 11 11 11 11 11 11 10 10 10 9 8 8 7 7 7 6 6 5 5 4 4 3 3 4 4 5 5 5 5 4 4 4 3 3 3 3 3 3
11 11 9 8 7 6 6 7 8 7 8 8 10 11 8 7 9 10 10 10 10 11 11 11 10 8 6 4 4 7 8 8 7 5 4 4 4 5 5 6 8 8 7 7 6 5 5 6 7 7 8 9 9 9 9 10 10 10 11 10 11 11 11 11 11 11 10 10 9 9 8 8 8 9 8 8 7 7 6 6 5 5 5 6 5 5 5 5 4 4 3 3 3 2 2 2 2
11 10 8 6 5 4 6 7 7 7 7 7 9 11 9 6 7 9 9 10 10 9 10 11 11 10 9 7 4 6 9 9 8 7 5 4 5 6 6 8 8 8 7 6 6 5 6 7 7 7 8 9 9 10 10 10 10 10 10 10 11 11 11 11 11 11 10 10 10 10 10 10 11 11 11 10 10 9 9 8 8 8 7 7 6 6 6 6 5 4 3 3 2 2 1 1 2
11 9 8 5 4 3 5 7 6 7 7 7 9 10 9 7 6 8 9 9 10 9 9 10 10 10 10 9 5 6 9 9 8 7 5 4 5 6 8 9 9 8 7 6 6 6 7 7 7 7 8 9 10 10 10 10 10 10 10 11 11 11 11 10 10 10 10 10 10 10 11 11 11 12 11 11 11 11 11 10 10 10 9 8 7 7 7 7 7 6 6 5 4 3 3 2 2
11 9 8 5 4 3 5 7 7 8 7 6 8 9 9 8 6 6 8 9 9 9 9 9 10 10 10 10 6 6 9 9 8 7 5 4 5 6 7 8 8 8 7 7 7 7 7 7 7 8 9 9 10 10 9 9 10 10 10 10 11 10 10 10 10 10 9 9 10 10 10 10 11 11 12 12 12 11 11 11 11 10 10 10 10 10 9 9 9 9 8 8 7 6 6 5 5
11 10 8 5 5 4 4 7 7 8 7 6 6 7 8 7 6 5 7 9 8 8 8 8 9 9 9 10 7 6 8 9 8 7 5 4 4 5 6 7 8 8 8 8 9 8 8 8 8 9 9 9 9 9 9 9 9 9 10 10 10 10 9 9 9 9 9 9 9 10 10 11 11 11 12 12 12 12 12 11 11 11 11 11 11 11 11 11 10 10 10 10 10 9 9 8 8
12 10 8 6 6 5 4 6 7 8 8 7 6 6 6 6 6 5 7 8 7 7 6 7 8 8 8 9 8 7 8 9 8 7 6 5 5 6 6 7 8 8 9 9 9 9 9 9 9 9 9 9 9 9 9 9 8 8 9 9 9 9 8 8 8 8 9 9 9 10 11 11 11 11 12 12 12 12 11 11 10 10 10 10 10 10 10 10 11 11 11 11 11 10 10 10 10
13 11 9 7 8 6 4 6 6 7 7 7 7 6 5 5 6 6 7 8 6 6 5 6 8 8 8 9 9 7 8 9 9 8 6 5 5 6 7 8 9 10 10 10 10 9 9 10 10 9 9 8 8 8 8 8 7 7 8 8 8 8 7 7 8 8 8 8 9 10 11 11 11 11 11 11 11 11 11 11 10 10 10 10 10 9 10 10 10 10 11 10 10 11 11 11 11
14 12 10 8 8 6 6 8 6 7 6 6 8 7 6 6 6 7 8 8 6 6 5 5 7 9 9 9 9 8 8 9 9 8 7 6 5 6 8 9 10 10 11 11 10 10 10 10 10 9 8 8 8 7 7 6 6 6 6 7 7 7 7 7 7 7 7 8 8 9 10 11 11 11 11 11 11 11 11 11 10 10 10 10 9 9 10 10 10 10 10 10 11 11 11 12 12
15 13 10 9 8 7 7 8 6 6 7 6 8 8 6 6 6 7 8 8 8 7 5 5 5 8 9 9 9 9 9 9 9 8 7 7 6 7 8 10 10 11 11 10 10 10 10 10 9 9 8 7 7 6 5 5 5 6 6 6 6 6 6 7 7 7 7 7 8 8 9 9 10 10 10 11 11 11 11 10 10 9 10 10 10 10 10 10 9 10 10 10 11 11 11 12 12
15 13 11 9 9 8 8 7 5 6 6 6 7 7 7 7 7 7 8 8 8 8 6 5 4 7 9 9 9 9 9 9 9 9 8 8 7 8 9 10 11 11 11 11 11 11 10 10 9 8 7 7 6 5 5 5 5 5 6 6 6 7 6 6 7 7 7 7 7 7 8 8 9 10 10 10 10 10 10 10 9 9 9 9 9 9 9 9 9 9 9 10 10 10 11 11 11
15 14 12 11 9 9 8 6 5 5 6 6 7 8 8 9 9 8 8 8 9 8 7 5 4 6 8 9 9 9 8 9 9 9 8 8 8 9 10 11 12 12 12 12 11 11 10 9 8 8 7 6 5 5 4 4 5 5 6 6 6 7 7 7 7 7 7 6 6 6 7 7 8 9 9 9 9 9 9 9 9 9 9 9 9 8 8 8 8 9 9 9 9 9 9 9 10
15 14 13 12 10 10 9 7 5 6 6 6 7 8 9 10 10 10 9 9 9 8 8 7 5 5 7 8 9 9 8 8 9 9 9 9 9 9 10 11 12 12 12 12 12 11 10 9 8 7 6 6 5 4 4 4 5 5 5 6 6 6 6 7 7 7 7 6 6 6 6 6 7 7 7 7 8 8 8 8 8 9 9 9 9 9 8 8 8 8 8 8 8 8 8 8 8
15 14 13 12 11 10 9 7 7 8 6 6 7 8 9 10 11 11 10 10 9 8 8 8 6 5 6 8 8 8 8 9 9 9 10 10 10 10 11 11 12 12 12 12 12 11 11 9 8 7 6 5 4 3 3 4 4 4 4 5 5 5 5 6 6 6 6 6 5 5 5 5 5 6 6 7 7 8 8 8 8 8 8 9 9 9 9 9 9 9 9 8 8 8 9 9 9
16 15 13 12 11 11 10 8 9 10 8 8 8 8 9 10 11 11 10 10 9 8 8 8 8 6 6 7 8 8 8 9 9 9 10 10 10 11 11 11 12 12 12 12 12 11 10 9 8 7 6 4 3 3 3 3 3 3 4 4 4 4 4 4 5 5 6 5 5 4 4 4 5 6 6 6 6 7 7 7 7 8 8 9 9 9 9 10 10 10 10 9 9 9 9 9 10
16 15 13 12 11 11 11 10 11 11 10 10 10 10 10 9 10 10 10 10 9 8 8 8 8 8 6 6 7 8 8 8 8 9 10 10 10 11 11 11 11 11 11 11 11 11 10 9 8 7 6 5 4 3 2 2 2 2 2 2 2 3 3 3 3 4 4 4 4 3 4 4 5 5 5 5 6 6 7 7 7 8 8 9 9 9 10 10 10 10 10 10 9 9 9 9 10
18 16 15 13 12 12 13 12 12 12 12 12 11 11 10 10 10 10 10 10 9 8 8 8 7 7 7 6 6 7 8 8 8 9 9 10 10 10 11 11 11 11 10 10 10 10 9 9 8 7 6 5 4 3 2 1 1 1 1 1 1 2 2 2 2 3 3 3 3 3 3 4 4 5 5 5 5 6 7 7 8 8 8 9 9 10 10 11 10 10 10 10 10 10 10 10 10
20 17 15 14 13 13 14 15 14 14 14 13 12 11 10 11 11 10 10 10 9 8 7 7 6 6 7 7 6 7 7 8 9 9 9 9 10 10 10 10 10 10 10 10 10 10 9 9 8 7 6 5 4 2 1 1 0 1 1 1 1 2 2 3 3 3 3 3 3 3 4 4 4 5 5 5 5 6 7 7 7 8 9 9 10 10 10 11 11 12 12 12 12 12 12 12 12
21 19 16 15 14 13 15 17 16 15 15 14 13 13 12 12 13 12 11 10 9 9 8 7 6 5 6 6 7 7 7 8 9 9 10 10 10 9 9 9 9 9 10 10 10 10 9 9 8 7 6 5 4 3 2 1 2 2 3 3 3 3 3 3 3 3 3 3 3 4 4 5 5 5 5 5 5 6 7 7 8 8 9 10 10 11 11 12 12 13 13 14 14 15 15 14 14
20 20 18 17 16 14 15 18 17 15 15 14 13 14 13 14 15 14 13 11 10 9 8 7 6 6 5 5 6 7 7 8 8 9 10 10 10 10 9 9 9 10 10 10 11 11 10 10 9 8 7 6 6 5 4 4 4 4 4 4 4 3 3 3 3 3 3 3 3 4 4 5 5 5 5 6 6 6 7 7 8 9 10 10 11 11 12 12 13 13 14 14 15 15 15 15 15
18 19 18 18 18 16 16 18 19 18 17 16 14 14 15 16 16 16 14 13 11 10 9 7 6 6 6 5 5 6 7 8 8 9 9 10 10 10 10 10 10 10 10 11 11 11 12 11 10 9 8 8 7 6 6 5 5 5 5 4 4 3 3 2 2 2 2 2 3 3 4 4 5 6 6 6 6 6 7 8 9 9 10 10 11 11 12 13 14 14 15 15 15 16 15 15 15
17 17 18 19 18 16 17 20 21 22 20 18 17 15 16 16 15 15 14 13 12 11 10 8 7 6 6 5 5 6 6 7 8 9 9 9 10 10 10 10 10 10 10 10 11 11 12 11 11 10 10 9 8 7 7 7 7 6 5 5 4 3 3 2 2 2 2 3 3 3 4 4 5 6 6 7 7 7 8 9 9 10 11 11 12 13 13 14 15 16 16 16 16 16 16 15 15
17 19 20 20 19 16 19 22 23 24 23 21 21 19 18 17 15 14 14 13 12 11 10 9 8 7 5 5 5 5 6 6 7 8 8 9 9 10 10 9 9 9 9 10 10 10 10 11 11 10 10 10 9 9 8 7 7 6 5 5 4 3 3 2 2 2 3 3 4 4 5 5 6 7 8 8 9 10 10 11 11 12 12 13 14 14 15 16 17 17 17 17 17 17 16 16 15
18 19 20 22 21 17 21 26 26 25 24 23 22 21 19 18 17 15 15 14 13 12 11 10 9 8 6 5 5 5 5 5 5 6 7 8 9 9 10 10 10 10 10 10 9 9 9 10 10 10 11 11 10 10 9 8 7 7 6 5 4 4 4 3 3 3 4 4 5 6 7 7 8 8 10 10 11 12 12 13 14 14 15 15 16 16 17 17 18 18 19 18 18 17 17 16 16
21 20 22 24 23 20 23 27 28 27 25 24 23 22 22 21 19 18 17 16 14 13 12 11 10 9 8 7 6 5 5 5 5 5 5 6 7 9 9 10 11 11 11 11 10 10 10 10 9 10 10 11 11 10 9 8 7 7 6 5 5 5 5 5 5 5 6 7 8 9 9 9 10 11 12 13 14 15 15 16 16 16 17 17 18 18 18 19 19 19 20 20 19 19 18 17 16
25 24 25 26 26 25 23 26 30 29 27 25 25 24 24 23 22 21 18 16 15 14 13 12 12 11 10 9 8 7 7 6 6 6 6 7 7 8 9 10 11 11 11 11 11 11 10 10 9 9 10 11 10 9 8 8 7 7 6 6 6 6 7 7 7 8 8 9 10 11 11 11 12 13 14 16 17 18 18 18 18 18 18 19 19 19 19 20 20 20 20 21 20 19 19 18 17
26 25 27 27 28 28 23 26 31 31 30 28 25 26 26 24 23 22 20 18 16 15 14 14 13 12 11 10 9 9 8 8 8 8 8 8 9 9 10 9 10 10 11 11 11 11 10 10 9 9 9 10 9 9 8 8 8 7 7 7 8 8 8 9 10 10 11 12 12 13 13 14 15 16 17 19 20 20 20 20 20 19 19 19 20 20 20 20 20 21 21 21 20 20 19 19 19
26 25 27 28 31 30 27 29 31 31 31 28 26 27 25 23 23 22 21 19 17 16 15 15 14 14 12 11 10 9 9 9 9 10 9 10 11 11 11 11 10 10 10 10 11 11 10 10 10 10 10 10 9 9 8 8 8 8 8 8 9 9 10 11 12 13 14 14 15 15 16 16 18 19 20 21 22 21 21 20 20 20 20 20 20 20 20 20 20 21 21 21 20 20 19 20 20
27 25 26 29 31 31 32 32 30 30 30 28 28 26 23 23 23 23 22 20 19 18 16 15 15 14 13 12 10 9 9 10 10 10 10 11 12 12 12 12 12 12 11 10 10 11 11 11 11 11 11 11 10 10 10 9 9 9 10 10 11 11 12 13 14 15 16 16 17 17 18 19 20 21 21 21 20 20 19 19 19 20 19 19 19 19 20 20 20 20 21 20 20 19 19 19 20
28 25 27 30 31 33 34 33 31 30 29 29 29 26 25 26 25 24 24 23 22 20 18 16 14 13 13 11 11 10 10 10 11 10 10 11 12 13 13 13 13 14 13 12 12 12 12 12 12 13 13 12 12 11 11 11 11 11 12 12 12 13 14 15 16 16 17 18 18 19 19 20 20 20 19 19 18 18 18 18 18 18 18 18 19 19 20 20 20 21 20 20 19 19 19 19 19
30 30 30 30 31 34 34 33 33 30 28 30 30 29 30 29 26 25 25 25 24 20 18 16 14 13 13 12 11 11 11 11 11 11 11 11 12 14 15 15 15 15 14 15 15 14 13 13 14 13 13 13 12 12 12 12 12 13 13 13 14 15 15 16 17 17 18 18 18 18 18 18 19 19 19 18 18 18 19 19 19 19 19 19 20 20 21 21 21 21 20 20 20 19 19 19 19
37 35 30 28 30 34 34 35 34 30 30 33 32 31 33 31 28 26 27 26 21 18 18 17 16 15 14 13 13 13 12 11 11 12 12 12 12 14 16 16 17 16 17 18 17 16 15 15 15 15 15 14 13 13 13 13 14 14 15 15 15 16 16 16 16 16 17 17 17 17 17 17 17 17 17 18 18 19 19 19 20 20 21 21 21 21 21 21 21 21 21 21 20 20 20 20 20
43 39 32 31 33 34 35 37 36 32 34 38 36 33 33 33 32 29 27 25 20 18 20 19 19 19 17 15 14 14 12 11 11 12 12 13 13 14 15 16 17 17 18 19 19 18 17 16 16 16 15 15 14 15 15 15 15 15 16 16 16 16 15 15 15 15 15 15 15 16 16 16 17 17 18 19 19 19 19 19 20 21 22 22 22 21 21 21 21 22 22 22 22 21 21 21 21
48 44 39 39 39 37 36 38 40 41 40 38 36 35 36 34 33 30 26 24 21 20 20 21 21 21 19 17 17 17 16 14 14 12 11 12 12 13 15 15 16 17 18 20 20 20 19 18 16 16 15 15 15 15 15 14 15 15 15 16 16 15 14 14 14 13 13 14 14 15 16 17 18 19 20 20 20 20 19 20 20 21 22 22 22 22 22 22 22 22 23 23 23 23 22 22 22
52 48 47 47 44 42 42 41 44 47 45 39 35 36 40 36 31 30 27 23 21 19 20 22 23 22 19 19 20 20 20 20 18 15 13 12 11 13 14 15 15 16 18 19 20 20 20 19 18 17 17 16 15 14 14 14 15 15 15 15 15 14 13 12 12 12 12 13 14 15 16 18 19 20 20 20 21 20 20 21 21 22 22 23 23 23 23 23 23 23 23 24 24 24 24 23 23
54 51 52 51 45 43 46 46 44 45 45 42 42 43 42 38 32 30 26 22 21 21 23 23 23 22 20 20 22 20 19 19 18 16 15 12 11 13 13 14 14 14 16 17 18 19 20 20 19 19 18 17 16 15 15 15 15 14 15 15 14 13 12 12 11 12 12 13 15 16 17 18 19 19 19 20 21 22 22 23 23 23 23 24 24 25 25 26 26 25 25 25 25 25 25 25 25
54 52 52 52 48 44 45 46 43 42 41 41 46 50 45 39 35 29 25 24 26 27 26 25 25 23 21 21 20 18 14 14 15 14 13 12 11 13 13 12 11 12 12 13 14 16 18 19 19 19 19 19 18 17 16 16 15 14 15 15 14 13 12 12 12 12 13 14 15 17 17 18 19 19 20 21 22 23 25 26 26 27 27 27 27 28 29 29 29 28 28 28 27 27 27 27 27
56 54 56 56 51 47 45 45 40 37 37 37 43 49 47 43 36 27 25 28 30 29 27 25 25 23 21 20 19 16 13 12 14 14 12 12 11 12 11 11 10 10 10 11 12 14 16 18 19 20 21 20 20 19 18 17 16 15 15 15 14 13 12 13 13 13 13 14 15 16 17 18 19 20 21 22 23 24 26 27 28 29 30 31 31 32 33 33 31 30 31 31 30 29 28 28 27
60 60 60 55 51 49 46 44 41 37 35 36 39 42 42 45 38 25 27 33 32 30 28 26 25 23 21 21 20 18 15 13 14 14 13 13 11 11 11 11 11 11 10 10 11 13 15 17 19 20 21 21 21 21 20 19 17 16 15 15 14 13 13 14 14 14 14 15 16 18 19 20 21 21 22 23 23 24 26 27 28 30 32 33 34 35 36 36 35 33 32 32 32 31 29 29 28
63 62 60 57 57 55 48 42 42 42 42 41 40 35 33 42 39 27 30 35 32 30 28 26 25 22 21 21 21 18 13 11 13 13 14 14 12 12 13 12 13 12 11 11 11 12 14 15 16 18 18 19 20 20 20 18 17 16 16 15 14 14 14 14 15 15 16 17 18 20 22 23 24 23 23 23 24 25 26 27 28 30 32 34 35 36 38 38 37 36 34 33 33 33 32 30 29
62 63 63 63 63 61 56 49 43 41 44 46 45 38 33 38 37 29 31 34 31 29 26 24 24 22 19 18 18 16 13 10 11 12 12 13 12 13 14 13 13 13 12 12 12 12 12 13 14 15 16 17 17 17 16 16 16 16 15 14 14 14 14 15 16 17 17 18 20 22 24 25 25 24 24 25 25 26 28 29 30 33 34 35 35 35 36 38 38 37 35 33 33 34 33 31 30
61 65 67 67 66 64 63 61 55 47 43 43 44 44 43 41 37 32 32 34 33 29 26 24 23 20 18 17 16 15 13 11 11 12 13 13 13 15 15 14 14 13 13 14 14 12 12 13 14 14 15 15 14 14 14 15 15 14 14 13 14 14 15 16 17 18 19 20 21 23 24 25 25 25 25 26 27 28 30 31 33 35 35 35 35 34 34 37 38 34 31 32 34 34 32 32 31
63 66 67 68 70 68 64 62 61 57 50 42 40 45 47 42 37 35 33 34 33 29 27 25 22 19 18 17 16 15 14 13 13 14 15 15 15 17 17 16 15 14 14 14 14 13 13 14 14 14 14 13 12 13 13 14 14 13 14 14 14 15 16 17 17 18 20 22 22 23 25 25 24 24 26 27 28 29 31 32 33 33 33 34 34 32 32 35 33 27 27 31 33 33 32 31 32
61 63 64 66 68 69 67 64 61 59 58 49 42 46 46 38 36 37 35 34 33 29 27 26 23 21 18 16 16 15 14 14 15 17 19 18 18 20 20 19 18 16 15 15 15 14 14 14 14 15 13 12 12 12 13 14 14 14 14 14 14 15 16 18 19 20 23 25 24 25 27 26 25 25 26 27 28 30 31 31 31 32 34 35 33 29 29 28 25 23 26 29 31 32 32 31 32
Wind_Direction
98 104 107 111 112 110 111 110 104 100 93 88 90 95 98 102 99 100 102 102 103 109 121 128 129 131 132 131 130 127 126 126 127 127 124 121 120 124 125 120 117 116 115 118 119 116 117 113 106 108 110 109 107 103 102 105 104 100 103 106 107 109 109 107 107 105 103 103 101 100 103 108 108 106 103 100 96 93 91 91 92 91 89 87 89 96 107 117 121 123 126 126 125 121 107 98 100
96 99 102 107 109 113 112 108 104 99 97 99 100 99 102 105 103 103 106 108 108 111 117 122 127 130 133 133 132 131 130 130 128 129 127 121 119 119 117 117 117 117 118 117 118 118 116 112 110 111 107 105 104 100 97 98 99 98 100 101 103 106 106 106 105 101 99 97 98 104 110 113 111 107 103 99 95 91 91 93 94 91 90 88 89 90 95 102 108 116 118 116 119 119 109 101 101
93 94 97 100 104 108 105 103 106 107 109 110 107 106 111 116 113 109 110 112 111 111 113 118 121 126 131 133 133 133 134 134 131 128 126 124 120 115 113 115 115 117 119 117 116 117 113 109 110 110 106 105 107 103 98 96 96 95 94 95 96 97 100 103 98 91 90 93 103 114 116 116 113 108 103 99 95 93 94 94 93 90 89 90 90 86 84 86 90 99 104 107 114 124 120 110 103
94 92 93 94 95 95 97 101 106 113 118 119 114 111 118 126 124 118 116 116 114 111 114 119 120 125 131 131 130 131 132 132 129 125 123 125 123 118 117 117 115 115 115 115 116 113 111 107 106 106 104 106 107 104 101 97 93 86 86 93 95 95 98 95 83 79 86 99 111 116 118 118 113 108 104 102 98 97 97 95 92 88 88 89 87 82 78 77 81 88 97 105 113 129 135 125 112
97 97 95 94 93 92 96 97 93 103 114 123 123 118 122 128 131 128 123 121 122 119 119 126 127 126 129 130 127 129 132 130 129 125 122 125 125 121 117 115 112 113 109 109 113 108 103 99 99 103 101 101 101 101 97 90 86 79 81 90 96 97 94 77 66 74 88 100 108 112 116 114 109 105 103 101 99 97 94 93 89 85 85 85 83 81 79 78 82 88 98 110 118 130 139 138 128
100 102 102 99 97 97 99 94 85 90 98 109 121 124 126 126 131 133 129 126 127 126 123 129 139 136 129 129 128 131 133 131 130 125 124 124 123 120 116 112 111 113 109 106 107 101 94 90 94 98 95 94 94 94 94 90 89 87 88 94 95 85 78 63 61 71 80 89 98 104 106 104 101 97 95 93 91 89 91 91 89 86 81 80 82 81 82 82 83 87 94 105 116 124 132 140 141
100 104 108 105 104 103 98 94 92 90 89 94 109 122 129 128 128 130 132 130 129 129 124 122 144 148 137 132 132 135 134 131 130 126 126 125 122 119 114 115 118 116 111 109 106 98 92 95 102 102 99 100 98 95 97 100 102 102 98 100 90 69 64 61 62 69 76 83 89 94 96 94 92 90 88 86 86 86 88 91 91 88 81 76 74 73 76 78 80 81 86 93 101 107 116 134 145
101 104 108 108 109 110 102 99 101 98 95 95 96 112 129 131 129 128 128 127 128 129 126 122 138 157 150 143 138 136 131 124 125 124 125 125 122 118 113 115 119 118 116 115 114 111 105 109 115 109 109 109 100 94 94 99 106 109 99 87 73 61 61 65 72 79 84 88 88 93 96 95 93 94 92 88 85 83 83 88 91 90 83 73 67 65 62 63 69 72 75 81 88 94 99 117 139
103 105 105 109 113 111 109 107 106 103 104 103 96 98 124 136 133 132 129 124 123 128 131 128 135 164 163 152 145 140 129 117 114 113 116 119 117 115 114 114 119 123 124 121 120 119 111 114 114 108 109 102 94 94 97 97 100 99 88 76 72 72 76 84 89 91 90 90 92 96 99 102 104 104 101 96 85 77 73 75 79 82 80 71 66 66 61 56 57 64 70 75 81 91 94 98 119
104 106 104 111 117 114 117 118 115 112 110 110 108 102 108 142 142 138 136 129 122 120 122 127 134 160 172 158 148 141 127 112 101 94 99 104 110 114 116 118 122 127 128 127 124 118 112 113 110 104 100 94 96 101 101 94 90 92 88 92 96 98 100 98 95 91 89 88 89 93 98 103 105 104 99 93 84 77 73 70 67 71 77 75 69 69 68 63 58 63 69 73 74 82 92 94 103
105 107 107 115 121 119 125 126 124 121 115 109 110 111 109 131 157 153 147 140 134 123 110 114 131 153 175 159 147 142 129 114 97 83 94 102 109 117 124 127 126 129 134 133 128 119 114 119 115 104 100 102 102 98 98 95 99 104 106 107 104 102 99 94 90 86 82 80 81 82 85 90 91 90 85 80 76 75 74 69 64 71 83 83 76 67 60 49 38 43 56 64 65 69 82 92 104
106 108 107 116 123 125 132 132 130 128 122 111 104 110 115 120 146 161 158 150 141 132 119 116 126 138 174 161 148 145 136 124 107 88 88 103 115 124 136 139 136 138 145 143 137 127 124 129 122 111 107 105 101 101 105 107 110 109 104 100 96 94 90 86 82 78 76 75 75 75 77 79 80 80 78 76 75 75 74 69 67 80 90 87 83 69 38 18 7 1 15 37 46 49 61 73 81
112 112 106 112 125 130 134 132 133 135 130 123 110 106 117 120 125 144 159 156 143 136 131 127 126 123 163 165 151 148 140 131 120 100 79 90 115 127 141 142 137 139 145 144 139 134 132 131 124 115 108 103 103 108 109 109 106 99 93 89 86 83 80 78 75 73 73 74 75 76 76 77 78 79 79 79 79 78 76 71 60 50 56 63 65 43 5 354 351 341 336 338 351 354 0 13 0
117 117 111 118 128 129 128 128 135 137 132 132 121 107 111 118 119 122 135 148 143 139 134 129 125 116 145 174 157 153 148 142 136 128 97 95 127 134 142 139 135 135 138 139 137 138 134 131 127 116 109 106 106 106 105 103 98 90 84 81 78 75 74 73 73 72 72 74 76 76 75 74 75 78 81 82 81 77 72 61 38 14 6 13 5 351 347 348 347 336 324 312 305 312 318 326 320
122 119 120 126 132 131 127 131 137 132 132 139 127 109 107 114 115 117 120 129 136 135 129 123 119 118 145 174 167 159 153 151 147 146 139 142 146 141 143 137 136 137 139 138 136 141 138 132 126 116 116 110 101 99 97 96 91 85 81 76 73 72 72 71 70 71 72 74 75 74 73 71 71 71 73 74 72 67 60 48 30 17 5 3 359 354 356 358 354 339 322 306 291 289 301 315 313
128 124 126 130 135 138 134 138 136 129 137 146 132 112 104 112 116 115 117 120 127 131 125 121 118 122 130 131 161 159 145 142 136 131 130 140 144 140 141 136 138 140 141 140 134 134 130 126 121 117 117 104 94 95 93 90 86 82 79 75 73 72 71 70 70 70 71 73 72 72 71 70 69 68 67 63 61 55 48 41 33 25 16 11 8 5 5 5 3 352 336 319 302 288 289 307 313
138 133 129 132 139 139 142 148 143 138 146 146 131 113 101 102 116 117 117 119 121 125 125 125 122 122 118 107 132 153 136 129 124 122 126 141 144 143 144 140 141 141 141 140 133 126 121 122 119 111 108 98 93 93 90 87 85 82 80 77 75 74 73 71 71 71 72 73 73 72 70 69 68 67 66 63 59 55 51 46 41 37 29 22 17 15 14 15 19 17 13 4 346 330 328 325 329
148 142 131 138 154 144 149 161 162 153 150 145 129 114 102 93 103 116 119 121 121 121 123 124 122 120 115 107 119 148 135 124 121 121 129 148 150 149 149 144 142 141 141 139 134 130 128 125 117 109 104 99 94 92 90 89 87 84 82 80 78 76 74 72 71 72 73 75 76 75 72 69 66 65 64 63 60 57 53 50 47 44 40 34 30 28 25 24 26 28 28 28 25 24 23 18 6
157 151 137 146 176 172 158 167 170 158 150 147 129 114 108 97 91 111 121 122 121 120 119 118 119 119 117 110 115 140 132 122 120 120 124 143 152 151 149 143 140 140 139 138 134 131 128 123 116 110 106 100 97 96 95 92 90 86 83 81 80 78 76 74 73 75 77 78 78 75 72 68 65 64 63 62 61 58 56 54 51 49 48 47 44 41 38 35 34 34 34 33 31 29 26 22 18
163 161 148 157 186 186 172 169 165 159 154 149 134 116 111 101 89 104 122 121 119 119 117 116 119 120 120 114 111 125 125 122 123 121 120 128 138 140 138 138 138 135 133 132 131 128 124 121 117 114 110 107 105 103 100 95 91 87 84 81 80 79 79 78 77 78 79 78 77 74 72 70 67 65 64 63 62 61 59 58 55 52 51 51 50 48 47 45 44 43 44 42 39 36 32 27 25
167 168 160 166 183 186 178 171 160 158 159 153 139 121 116 106 97 108 120 116 113 116 115 116 120 119 120 114 108 112 119 122 123 122 121 127 133 131 129 131 131 128 127 127 127 125 123 122 122 119 116 113 109 105 100 95 90 85 82 82 81 81 81 82 81 79 78 75 75 76 74 73 70 67 66 64 64 63 62 62 59 55 53 52 52 51 50 50 49 48 48 48 47 46 42 39 36
167 169 165 166 176 182 171 172 167 156 158 154 139 125 128 119 106 112 115 112 107 109 107 112 120 118 114 109 104 106 112 118 120 119 115 118 130 132 130 127 125 126 126 128 128 124 123 125 126 124 120 115 110 105 100 95 89 85 83 83 83 83 83 83 82 78 75 74 74 76 75 75 73 71 68 66 65 64 63 62 61 60 58 55 53 51 51 51 49 49 49 49 49 48 47 45 42
167 167 168 169 174 181 172 175 172 153 154 151 138 131 137 127 114 114 111 112 106 100 95 100 116 118 111 103 99 101 106 111 111 109 107 106 114 124 127 124 125 129 130 130 128 126 127 130 130 126 121 116 112 107 101 95 90 86 84 82 82 81 81 81 80 77 74 72 72 73 73 74 75 73 70 67 64 62 60 59 58 60 61 58 55 54 53 52 49 48 48 48 49 48 48 47 46
170 170 170 173 177 180 172 171 166 154 156 148 138 139 140 129 122 116 111 114 103 91 81 84 109 116 111 102 97 99 104 109 108 104 104 107 112 121 125 126 129 133 134 134 134 134 136 135 133 130 125 120 116 110 101 94 90 87 83 81 79 77 77 77 76 74 72 71 71 71 72 73 74 73 69 66 62 58 54 53 52 53 58 58 56 56 57 56 53 49 47 46 48 49 49 48 48
177 174 171 172 171 166 161 164 162 152 150 138 136 142 141 131 123 116 113 111 97 90 79 74 99 114 111 103 97 98 105 112 114 112 114 116 121 128 131 134 136 139 140 142 143 143 143 141 137 133 130 126 121 113 104 97 92 89 84 79 76 74 73 73 73 72 72 74 73 71 71 72 71 71 68 63 58 54 49 46 43 42 47 53 54 54 56 57 54 50 47 46 48 49 49 48 47
183 176 172 168 161 157 153 160 167 153 147 136 135 142 139 129 118 113 112 103 92 93 88 81 93 113 115 110 103 99 103 112 117 118 120 122 127 134 138 141 144 147 148 149 150 149 148 146 143 139 136 132 128 120 111 104 96 89 85 80 75 72 69 69 71 72 76 78 77 74 72 71 70 69 65 61 57 55 50 43 39 37 37 42 48 47 50 53 50 45 43 42 43 45 47 47 46
184 179 177 172 167 167 160 162 172 160 154 143 140 146 139 128 118 112 107 99 92 92 93 93 96 109 119 118 113 108 106 112 120 124 126 128 133 139 145 149 151 153 153 154 153 153 152 151 149 146 143 138 132 125 118 108 99 91 85 81 75 71 67 65 67 72 78 80 76 72 69 67 67 65 60 55 50 47 45 40 35 34 33 34 39 37 38 42 40 36 35 33 32 31 32 32 32
186 184 182 182 179 174 164 164 176 170 167 154 148 151 141 129 121 113 106 100 96 94 93 95 97 106 121 124 122 119 116 117 122 129 132 134 138 144 150 153 155 156 156 157 157 157 156 156 156 155 153 147 137 129 123 111 98 90 84 78 74 70 66 63 64 68 72 73 70 66 61 55 52 52 49 46 41 36 36 35 30 28 28 29 32 31 30 32 30 26 24 23 21 18 15 12 11
195 192 184 189 190 181 169 169 182 181 175 160 155 157 146 134 127 121 114 108 104 100 94 93 96 101 115 127 130 128 126 125 127 132 137 139 143 148 152 155 158 160 160 160 160 161 161 162 164 164 162 160 152 141 126 111 97 88 80 72 67 63 61 60 60 62 63 64 64 61 49 36 35 35 36 38 37 30 28 30 25 20 19 23 25 24 24 25 23 19 15 13 13 10 7 3 0
200 198 190 194 197 191 179 174 187 189 179 169 167 166 154 144 140 132 123 117 111 107 100 94 94 98 107 123 134 138 137 136 137 141 143 144 148 152 155 159 162 163 164 164 164 165 168 169 171 173 173 173 171 158 130 108 97 85 74 65 55 45 42 45 49 54 56 57 55 52 41 27 27 28 26 29 28 21 18 18 15 13 13 15 16 15 15 15 13 11 6 4 3 2 0 357 354
201 201 198 198 196 195 187 179 186 190 184 180 182 178 167 159 155 142 130 126 121 117 113 103 95 97 105 114 130 141 145 146 148 149 150 151 153 157 160 164 167 168 169 170 173 175 177 179 180 182 184 184 181 166 135 102 82 70 55 36 15 9 4 3 18 34 41 43 35 34 33 21 20 24 25 26 22 15 13 11 6 5 6 6 7 6 5 3 0 358 354 353 351 351 351 349 348
203 202 201 204 204 200 193 184 184 190 186 185 190 190 182 172 163 153 140 134 133 130 127 119 107 102 107 114 124 136 145 150 154 156 158 160 161 164 166 170 175 176 177 180 184 186 187 189 191 193 195 195 193 181 156 116 24 336 316 305 300 307 315 325 340 359 8 8 4 10 16 10 9 13 15 16 11 6 5 2 358 357 357 357 358 358 356 353 349 346 344 342 342 343 343 342 342
205 204 200 206 211 208 201 190 185 188 184 182 190 191 189 181 167 158 148 142 144 145 142 136 127 122 122 123 128 136 147 153 157 160 163 167 170 171 173 177 182 184 187 192 195 197 198 200 200 203 205 206 209 210 209 232 262 274 277 273 273 281 289 304 320 332 340 338 335 344 356 355 356 0 2 1 358 357 354 350 350 350 349 349 351 351 349 345 340 338 336 335 335 335 335 335 335
204 206 203 202 205 210 207 194 182 178 174 176 188 191 190 185 170 160 155 152 153 153 148 143 142 144 144 142 142 143 150 157 161 164 166 171 175 177 180 184 189 193 195 200 202 204 207 208 208 211 214 215 218 221 226 239 251 257 261 264 265 268 277 291 305 312 316 319 315 323 339 344 345 351 352 348 347 347 344 342 344 343 342 343 344 345 342 337 334 333 331 330 329 328 327 327 328
203 204 204 201 202 206 203 192 181 172 171 176 183 188 187 183 173 166 163 159 158 159 151 143 147 158 164 161 159 158 158 162 165 168 171 175 178 182 185 189 193 198 201 203 206 208 211 212 213 216 220 223 224 225 230 239 248 252 253 254 256 259 266 278 285 290 291 292 297 307 325 335 338 340 336 332 332 333 333 333 334 334 334 335 335 335 332 330 329 330 329 329 327 324 322 321 321
203 201 200 199 202 207 201 192 185 176 174 179 181 186 187 183 179 173 169 162 159 160 156 150 150 161 177 181 179 174 171 170 169 171 175 179 184 188 190 192 196 201 203 204 207 209 212 214 216 219 223 228 230 231 235 243 249 249 249 247 245 251 252 257 269 273 278 281 290 301 312 321 322 320 317 317 317 317 320 322 322 323 324 325 325 324 323 323 324 326 327 327 325 322 320 318 317
200 200 198 194 194 207 207 197 190 183 180 182 185 188 188 185 182 178 173 167 164 162 159 157 157 161 174 191 199 192 182 179 176 176 180 184 189 194 196 196 198 202 205 207 209 211 213 215 218 220 225 230 233 236 240 245 248 246 243 242 241 245 248 251 262 270 281 290 298 304 308 311 312 311 312 313 312 313 315 315 315 316 317 317 317 316 317 318 319 321 322 321 319 317 317 315 314
204 200 196 190 187 204 211 200 192 188 185 187 189 191 190 188 184 181 177 172 168 166 164 163 164 167 169 182 207 218 210 197 190 186 188 193 196 199 202 203 204 206 208 209 212 215 216 218 220 223 227 231 234 238 243 243 243 241 237 238 243 248 250 255 268 279 291 299 300 303 305 308 311 313 314 313 312 313 312 312 311 312 312 312 312 313 313 313 314 315 315 315 314 313 313 311 310
213 200 194 192 192 205 208 199 193 189 187 191 194 193 192 190 187 186 184 177 173 170 170 171 171 174 176 181 194 215 228 224 215 209 207 210 210 209 209 209 210 210 211 212 215 218 220 221 222 225 227 231 234 237 240 240 239 236 233 236 242 249 255 262 272 283 292 297 299 300 302 304 307 310 313 315 315 313 311 308 308 308 309 310 311 311 310 309 309 310 310 311 310 310 309 307 306
214 202 196 192 200 209 204 199 196 190 189 194 197 199 197 195 192 190 187 182 181 178 176 177 179 183 186 191 197 205 218 226 225 223 225 230 230 225 220 218 217 214 214 214 217 219 220 220 221 224 226 228 232 235 236 238 238 237 236 240 247 253 260 268 276 285 289 293 295 297 300 301 303 305 309 312 312 310 308 305 305 304 305 307 308 308 307 306 305 306 307 307 307 306 305 303 302
213 202 197 194 203 208 203 203 200 194 195 196 198 203 203 200 195 193 192 188 187 187 186 186 188 192 193 197 206 211 217 225 228 228 230 233 237 238 234 232 228 223 220 217 217 219 217 217 217 219 223 225 227 230 233 236 238 241 243 249 256 261 268 275 280 285 288 290 291 295 299 301 301 302 304 306 306 304 302 302 301 301 301 302 302 303 303 303 303 303 304 303 302 301 300 299 297
216 203 195 198 203 204 205 208 203 201 202 199 201 206 206 203 198 197 199 193 188 189 190 191 194 197 196 199 209 216 221 226 231 234 234 234 237 240 240 238 235 231 229 225 222 221 218 214 213 214 217 220 224 227 231 236 240 246 251 255 262 268 274 279 282 284 286 287 290 294 299 301 301 301 302 303 302 301 299 299 299 298 298 298 298 299 300 300 299 299 300 298 296 296 296 295 294
217 202 194 202 204 203 208 211 207 207 208 206 208 208 204 201 201 203 204 199 195 191 189 191 194 196 196 198 206 214 223 228 232 236 236 237 237 238 240 239 239 238 235 233 230 228 225 221 217 217 217 217 221 226 231 237 242 248 254 259 265 271 275 279 281 283 286 289 293 297 299 301 301 301 302 302 301 300 298 298 298 298 298 297 297 297 298 297 297 296 296 294 292 292 293 292 292
216 207 200 202 204 205 211 213 211 211 213 214 213 210 204 200 204 208 206 207 207 199 194 195 193 193 196 198 203 211 224 232 235 238 240 241 239 238 240 240 242 242 238 237 236 234 232 231 229 227 226 225 226 230 234 239 246 251 257 262 267 272 275 279 282 285 289 293 296 299 301 302 302 302 303 303 302 301 302 302 302 302 301 301 300 300 299 298 298 297 295 293 290 290 291 291 290
221 219 208 201 204 208 212 217 215 215 221 220 214 213 211 206 208 211 208 211 216 209 202 201 195 195 200 199 201 209 221 231 237 241 240 242 243 240 241 241 243 245 241 238 237 238 238 237 238 237 236 237 236 238 242 245 250 256 261 265 269 273 277 281 286 290 295 298 300 302 303 304 304 304 305 306 306 307 309 310 310 310 309 307 305 304 302 301 301 300 297 293 289 289 291 290 290
223 221 208 205 211 209 213 218 215 219 229 222 214 218 217 212 211 215 217 218 220 212 203 200 197 200 206 203 200 207 217 227 234 239 238 236 239 241 243 244 246 246 242 241 241 240 242 242 243 244 244 246 247 248 250 252 257 261 265 269 271 274 278 284 290 296 300 302 304 305 305 306 306 308 310 311 312 312 313 315 317 317 315 312 309 306 305 303 302 301 298 294 291 291 292 291 290
222 221 215 221 224 215 216 220 215 222 231 219 213 220 220 214 212 217 225 223 222 218 209 209 205 206 214 208 199 203 209 214 224 233 237 235 237 240 244 248 250 249 246 247 246 244 245 247 249 250 250 251 252 253 256 259 263 266 269 272 273 275 280 287 294 299 303 305 306 306 308 310 311 313 314 313 312 313 315 319 321 320 318 314 311 308 306 305 303 302 299 296 293 291 289 288 287
221 223 223 228 230 223 222 222 218 224 230 219 214 223 225 220 213 216 224 221 224 226 215 218 218 217 222 214 204 207 209 208 213 222 232 239 244 247 252 256 256 255 253 252 251 249 249 250 253 255 254 252 253 256 260 263 267 271 273 274 274 276 282 289 296 301 304 305 306 309 312 314 314 315 316 314 312 313 315 318 319 318 316 314 312 309 307 305 303 302 299 295 291 288 285 283 283
221 222 223 226 228 229 229 227 224 226 229 222 218 225 229 226 214 212 220 219 226 228 211 215 224 227 228 219 214 218 219 217 213 212 219 229 244 253 260 265 264 261 258 254 252 251 251 252 254 256 253 251 252 255 261 265 270 274 275 276 275 277 283 288 294 299 303 306 309 312 313 313 314 316 317 316 315 314 313 313 312 312 312 310 309 308 307 306 303 300 297 292 289 286 283 281 280
221 220 222 224 224 227 230 230 228 229 230 227 226 226 228 230 220 213 217 216 217 217 207 211 224 232 230 220 223 231 235 236 226 217 220 224 239 255 262 268 269 266 261 256 254 251 251 251 253 253 251 250 251 254 261 267 271 274 275 276 274 275 279 283 289 296 302 308 311 312 311 311 312 314 315 314 313 311 309 308 308 308 308 306 304 303 303 303 302 299 295 291 288 285 284 282 281
222 222 225 227 225 226 230 232 231 233 234 232 231 228 226 231 226 211 206 207 207 208 206 212 222 229 226 222 233 245 255 257 242 232 234 235 244 255 261 267 270 270 268 264 260 255 254 254 253 252 250 249 250 255 263 267 269 273 275 273 271 270 272 277 286 295 302 308 310 311 311 311 312 313 313 311 309 308 307 307 307 308 307 305 302 299 298 299 299 298 295 293 290 287 285 284 284
222 222 225 228 228 228 232 235 235 237 238 235 236 234 228 229 229 213 200 202 204 206 208 215 223 224 223 226 237 253 267 265 249 246 247 247 252 256 260 268 272 275 276 274 269 263 259 257 254 253 252 252 254 259 263 264 266 270 271 267 264 264 267 275 286 295 300 305 308 311 311 310 310 310 309 307 306 306 306 306 307 307 308 306 304 301 299 297 296 294 293 292 291 289 286 285 286
222 221 224 228 230 230 233 238 237 234 234 233 240 243 232 228 231 217 203 203 200 204 208 212 220 221 223 231 241 254 268 264 250 249 250 251 258 260 262 270 276 280 280 278 276 269 265 262 259 258 257 257 258 259 260 260 263 265 263 261 259 259 266 277 287 293 298 304 308 309 309 308 308 308 306 304 303 304 305 306 306 306 306 304 302 302 301 298 294 289 288 289 289 287 285 286 288
223 223 224 227 230 229 228 233 235 235 236 234 239 245 236 229 229 215 204 205 200 202 207 212 217 218 221 233 241 248 254 248 242 246 251 257 266 267 267 270 273 279 282 283 281 276 272 269 265 262 259 257 256 256 257 258 257 256 256 257 256 260 270 279 286 292 298 305 307 307 307 306 307 308 308 307 308 309 311 311 309 307 305 303 301 301 301 300 295 288 285 287 286 283 281 282 285
224 226 225 226 229 231 228 227 229 232 238 237 237 243 241 233 228 216 206 204 200 200 205 214 217 214 218 228 231 231 227 228 241 252 258 265 270 267 266 267 270 278 285 286 286 283 275 267 265 264 260 256 255 254 253 250 248 249 252 253 257 265 275 282 289 295 301 306 307 305 305 305 308 312 312 312 314 316 315 314 312 310 309 306 304 304 302 301 298 294 289 288 288 284 279 277 280
221 225 226 226 229 232 232 233 233 232 236 239 238 242 244 238 230 221 210 202 200 202 204 212 215 210 210 214 213 214 219 229 241 251 257 261 261 259 261 265 269 278 288 290 291 287 273 262 261 261 258 255 252 249 243 241 243 246 249 254 261 270 277 284 292 298 302 305 305 305 307 309 313 315 311 309 312 314 313 312 311 310 308 307 306 306 306 305 305 304 296 288 287 286 280 275 278
222 223 224 225 227 229 231 234 235 234 234 238 239 240 243 244 236 223 210 204 205 211 214 214 213 208 204 206 209 212 219 230 237 241 246 250 251 254 259 265 269 278 289 293 290 283 272 263 256 253 251 248 244 242 240 241 243 245 250 257 264 273 280 286 291 296 301 302 304 308 310 312 315 314 309 308 308 309 311 312 311 309 307 306 306 306 307 309 307 302 292 284 284 284 280 277 280
227 225 225 226 227 228 230 232 233 233 233 234 239 241 239 243 244 228 213 212 217 222 225 219 213 213 207 202 212 220 223 229 234 234 235 238 244 252 259 265 270 277 288 293 287 280 275 266 256 252 249 245 243 243 242 243 244 247 253 260 267 275 281 285 288 294 301 302 303 309 312 311 313 313 310 310 309 307 309 311 311 310 307 305 305 302 302 303 297 285 281 280 280 282 281 280 283